GW0507 Weather Reports


time (UTC)temp
F
wind
direction
speed
knots
gust
knots
rain 1hr
in
rain 24hr
in
rain mn
in
humidity
%
barometer
mb
20260508203031 56 60 7.0 12.2 0.00 0.18 0.00 50 1001.3
20260508201536 57 22 7.8 14.8 0.00 0.18 0.00 50 1001.2
20260508200035 57 350 5.2 13.9 0.00 0.18 0.00 48 1001.0
20260508194535 57 24 8.7 15.6 0.00 0.44 0.00 49 1001.0
20260508193044 57 360 8.7 16.5 0.00 0.44 0.00 49 1000.8
20260508191540 56 43 7.0 12.2 0.00 0.44 0.00 63 1000.8
20260508190036 56 40 8.7 13.0 0.00 0.44 0.00 59 1000.6
20260508184535 55 36 7.0 13.0 0.00 0.70 0.00 65 1000.8
20260508183034 54 61 10.4 13.9 0.00 0.70 0.00 68 1000.9
20260508181534 54 68 12.2 15.6 0.00 0.70 0.00 67 1000.9
20260508180041 55 71 9.6 14.8 0.00 0.70 0.00 65 1000.9
20260508174539 54 78 7.8 13.0 0.00 0.71 0.00 68 1001.1
20260508173035 55 51 8.7 12.2 0.00 0.71 0.00 67 1001.2
20260508171542 55 41 7.8 11.3 0.00 0.71 0.00 68 1001.3
20260508170043 54 57 6.1 11.3 0.00 0.71 0.00 67 1001.2
20260508164543 54 46 6.1 10.4 0.00 0.71 0.00 70 1001.2
20260508163041 53 42 7.0 12.2 0.00 0.71 0.00 70 1001.2
20260508161535 53 58 8.7 12.2 0.00 0.71 0.00 70 1000.9
20260508160037 54 15 7.8 12.2 0.00 0.71 0.00 69 1001.0
20260508154541 54 74 5.2 12.2 0.00 0.71 0.00 68 1001.0
20260508153037 54 55 8.7 12.2 0.00 0.71 0.00 73 1001.0
20260508151541 53 57 7.8 15.6 0.00 0.71 0.00 76 1001.2
20260508150041 52 71 12.2 14.8 0.00 0.71 0.00 75 1001.4
20260508144537 52 67 10.4 13.9 0.00 0.71 0.00 77 1001.4
20260508143034 49 192 1.7 7.8 0.00 0.71 0.00 84 1002.0
20260508141536 52 71 5.2 8.7 0.00 0.71 0.00 85 1001.9
20260508140035 50 83 1.7 7.0 0.00 0.71 0.00 90 1002.6
20260508134535 50 84 6.1 9.6 0.00 0.71 0.00 90 1002.6
20260508133034 49 214 1.7 6.1 0.00 0.71 0.00 95 1002.3
20260508131539 49 236 2.6 9.6 0.00 0.71 0.00 96 1002.2
20260508130036 44 90 7.8 10.4 0.00 0.71 0.00 95 1002.3
20260508124534 43 82 7.8 10.4 0.00 0.73 0.00 95 1002.3
20260508123034 43 104 6.1 11.3 0.00 0.73 0.00 96 1002.2
20260508121535 43 96 7.0 8.7 0.00 0.73 0.00 96 1002.4
20260508120040 43 83 6.1 8.7 0.00 0.73 0.00 96 1002.6
20260508114541 44 88 5.2 7.8 0.00 0.77 0.00 96 1002.2
20260508113041 43 172 0.9 3.5 0.00 0.77 0.00 97 1002.4
20260508111542 44 0 0.0 2.6 0.00 0.77 0.00 97 1002.6
20260508110041 42 0 0.0 2.6 0.00 0.77 0.00 97 1003.0
20260508104541 41 0 0.0 2.6 0.00 0.77 0.00 97 1002.9
20260508103041 42 0 0.0 2.6 0.00 0.77 0.00 97 1003.0
20260508101536 41 256 0.9 3.5 0.00 0.77 0.00 97 1002.6
20260508100035 41 296 2.6 6.1 0.00 0.77 0.00 97 1002.6
20260508094535 40 257 1.7 2.6 0.00 0.77 0.00 97 1002.6
20260508093041 40 347 0.9 3.5 0.00 0.77 0.00 97 1002.3
20260508091550 39 102 0.0 2.6 0.00 0.77 0.00 97 1002.5
20260508090042 39 103 0.0 3.5 0.00 0.77 0.00 97 1002.3
20260508084535 39 273 0.9 2.6 0.00 0.77 0.00 97 1001.8
20260508083037 40 271 1.7 2.6 0.00 0.77 0.00 97 1001.7
20260508081544 40 0 0.9 2.6 0.00 0.77 0.00 97 1001.5
20260508080034 40 219 0.0 1.7 0.00 0.77 0.00 97 1001.5
20260508074534 40 219 1.7 3.5 0.00 0.77 0.00 97 1001.6
20260508073034 40 0 0.0 2.6 0.00 0.77 0.00 97 1001.7
20260508071536 40 0 0.0 2.6 0.00 0.77 0.00 97 1001.8
20260508070036 40 0 0.0 2.6 0.00 0.77 0.00 96 1001.8
20260508064536 41 263 0.9 3.5 0.00 0.77 0.00 96 1001.7
20260508063035 41 269 0.9 2.6 0.00 0.77 0.00 97 1001.8
20260508061534 40 182 1.7 2.6 0.00 0.77 0.00 96 1001.6
20260508060034 40 137 0.9 2.6 0.00 0.77 0.00 96 1001.6
20260508054541 41 173 0.9 4.3 0.00 0.77 0.00 96 1001.6
20260508053036 42 249 2.6 3.5 0.00 0.77 0.00 96 1001.6
20260508051538 42 0 0.0 2.6 0.00 0.77 0.00 97 1001.5
20260508050035 42 84 0.9 5.2 0.00 0.77 0.00 96 1001.7
20260508044541 42 252 0.9 1.7 0.00 0.77 0.00 96 1001.7
20260508043049 42 252 0.0 1.7 0.00 0.77 0.00 96 1001.7
20260508041539 43 252 0.9 6.1 0.00 0.77 0.00 96 1001.7
20260508040037 43 245 2.6 6.1 0.00 0.77 0.00 96 1001.7
20260508034547 43 237 3.5 6.1 0.00 0.77 0.00 96 1001.8
20260508033041 44 296 1.7 6.1 0.00 0.77 0.00 96 1001.8
20260508031541 44 248 2.6 5.2 0.00 0.77 0.00 96 1002.0
20260508030038 45 221 0.9 4.3 0.00 0.77 0.00 96 1002.0
20260508024535 46 5 3.5 6.1 0.00 0.77 0.77 97 1002.2
20260508023035 45 68 1.7 8.7 0.00 0.77 0.77 96 1001.9
20260508021538 45 75 2.6 5.2 0.00 0.77 0.77 96 1002.1
20260508020042 47 223 0.9 3.5 0.00 0.77 0.77 96 1002.0
20260508014534 50 302 4.3 8.7 0.00 0.77 0.77 97 1001.6
20260508013033 49 312 4.3 8.7 0.00 0.77 0.77 97 1001.5
20260508011535 48 170 1.7 8.7 0.00 0.77 0.77 97 1001.2
20260508010035 46 33 2.6 3.5 0.00 0.77 0.77 96 1001.4
20260508004538 46 15 2.6 4.3 0.00 0.77 0.77 97 1001.4
20260508003033 45 338 1.7 3.5 0.00 0.77 0.77 97 1001.6
20260508001533 46 100 6.1 8.7 0.00 0.77 0.77 96 1001.5
20260508000040 46 313 0.9 7.0 0.00 0.77 0.77 96 1001.7
20260507234539 47 156 7.8 10.4 0.00 0.77 0.77 97 1001.4
20260507233034 47 66 1.7 3.5 0.00 0.77 0.77 96 1001.4
20260507231540 47 24 1.7 3.5 0.00 0.77 0.77 96 1001.5
20260507230033 46 53 2.6 4.3 0.00 0.77 0.77 96 1001.7
20260507224535 46 90 2.6 7.0 0.00 0.77 0.77 96 1001.4
20260507223035 47 133 0.9 4.3 0.00 0.77 0.77 96 1001.3
20260507221534 45 44 1.7 4.3 0.00 0.77 0.77 97 1001.7
20260507220041 44 120 8.7 13.0 0.00 0.77 0.77 95 1001.8
20260507214541 46 106 2.6 7.8 0.01 0.77 0.77 95 1002.0
20260507213045 46 119 10.4 13.0 0.04 0.77 0.77 95 1001.7
20260507211536 48 200 6.1 12.2 0.13 0.77 0.77 95 1002.5
20260507210045 49 189 6.1 13.0 0.17 0.77 0.77 96 1001.8
20260507204545 49 151 7.0 11.3 0.23 0.76 0.76 96 1001.7